| time (UTC) | temp F | wind direction | speed MPH | gust MPH | rain 1hr in | rain 24hr in | rain mn in | humidity % | barometer mb |
| 20260503220105 | 90 | 65 | 2.0 | 6.0 | 0.00 | 0.00 | 0.00 | 27 | 1008.4 |
| 20260503214647 | 89 | 86 | 2.0 | 8.0 | 0.00 | 0.00 | 0.00 | 27 | 1008.6 |
| 20260503213128 | 89 | 30 | 1.0 | 8.0 | 0.00 | 0.00 | 0.00 | 28 | 1008.7 |
| 20260503211620 | 88 | 77 | 3.0 | 9.0 | 0.00 | 0.00 | 0.00 | 26 | 1008.9 |
| 20260503210052 | 87 | 21 | 3.0 | 9.0 | 0.00 | 0.00 | 0.00 | 31 | 1009.0 |
| 20260503204606 | 87 | 60 | 4.0 | 10.0 | 0.00 | 0.00 | 0.00 | 32 | 1009.2 |
| 20260503203054 | 86 | 52 | 4.0 | 9.0 | 0.00 | 0.00 | 0.00 | 32 | 1009.4 |
| 20260503201554 | 86 | 341 | 2.0 | 9.0 | 0.00 | 0.00 | 0.00 | 33 | 1009.6 |
| 20260503200054 | 85 | 24 | 2.0 | 6.0 | 0.00 | 0.00 | 0.00 | 34 | 1009.8 |
| 20260503194553 | 85 | 314 | 2.0 | 9.0 | 0.00 | 0.00 | 0.00 | 34 | 1010.1 |
| 20260503193056 | 83 | 0 | 3.0 | 8.0 | 0.00 | 0.00 | 0.00 | 36 | 1010.1 |
| 20260503191604 | 83 | 40 | 3.0 | 8.0 | 0.00 | 0.00 | 0.00 | 38 | 1010.2 |
| 20260503190057 | 82 | 348 | 3.0 | 6.0 | 0.00 | 0.00 | 0.00 | 37 | 1010.4 |
| 20260503184616 | 81 | 21 | 1.0 | 6.0 | 0.00 | 0.00 | 0.00 | 41 | 1010.6 |
| 20260503183106 | 81 | 69 | 3.0 | 6.0 | 0.00 | 0.00 | 0.00 | 43 | 1010.6 |
| 20260503181554 | 79 | 0 | 1.0 | 5.0 | 0.00 | 0.00 | 0.00 | 46 | 1010.8 |
| 20260503180057 | 78 | 42 | 2.0 | 6.0 | 0.00 | 0.00 | 0.00 | 48 | 1010.9 |
| 20260503174610 | 77 | 40 | 3.0 | 7.0 | 0.00 | 0.00 | 0.00 | 53 | 1011.0 |
| 20260503173118 | 75 | 40 | 1.0 | 6.0 | 0.00 | 0.00 | 0.00 | 56 | 1011.2 |
| 20260503171553 | 74 | 54 | 2.0 | 5.0 | 0.00 | 0.00 | 0.00 | 56 | 1011.3 |
| 20260503100106 | 54 | 0 | 0.0 | 0.0 | 0.00 | 0.00 | 0.00 | 92 | 1011.8 |
| 20260503090104 | 55 | 0 | 0.0 | 0.0 | 0.00 | 0.00 | 0.00 | 91 | 1012.0 |
| 20260503081600 | 56 | 0 | 0.0 | 0.0 | 0.00 | 0.00 | 0.00 | 90 | 1012.0 |
| 20260503071611 | 59 | 0 | 0.0 | 0.0 | 0.00 | 0.00 | 0.00 | 86 | 1012.3 |
| 20260503070111 | 59 | 0 | 0.0 | 0.0 | 0.00 | 0.00 | 0.00 | 86 | 1012.1 |
| 20260503060114 | 62 | 32 | 0.0 | 6.0 | 0.00 | 0.00 | 0.00 | 81 | 1012.1 |
| 20260503054559 | 63 | 25 | 3.0 | 6.0 | 0.00 | 0.00 | 0.00 | 80 | 1012.1 |
| 20260503053055 | 63 | 34 | 2.0 | 8.0 | 0.00 | 0.00 | 0.00 | 79 | 1012.3 |
| 20260503051553 | 63 | 22 | 1.0 | 5.0 | 0.00 | 0.00 | 0.00 | 80 | 1012.3 |
| 20260503050100 | 63 | 350 | 1.0 | 5.0 | 0.00 | 0.00 | 0.00 | 80 | 1012.4 |
| 20260503044554 | 63 | 0 | 1.0 | 8.0 | 0.00 | 0.00 | 0.00 | 78 | 1012.6 |
| 20260503043058 | 64 | 347 | 1.0 | 8.0 | 0.00 | 0.00 | 0.00 | 78 | 1012.5 |
| 20260503041552 | 64 | 0 | 2.0 | 5.0 | 0.00 | 0.00 | 0.00 | 78 | 1012.5 |
| 20260503040057 | 64 | 0 | 0.0 | 4.0 | 0.00 | 0.00 | 0.00 | 76 | 1012.2 |
| 20260503034555 | 64 | 302 | 0.0 | 5.0 | 0.00 | 0.00 | 0.00 | 75 | 1012.0 |
| 20260503033101 | 64 | 201 | 2.0 | 7.0 | 0.00 | 0.00 | 0.00 | 75 | 1012.1 |
| 20260503031552 | 64 | 263 | 2.0 | 8.0 | 0.00 | 0.00 | 0.00 | 74 | 1012.0 |
| 20260503030057 | 65 | 252 | 2.0 | 6.0 | 0.00 | 0.00 | 0.00 | 74 | 1012.1 |
| 20260503024552 | 65 | 231 | 3.0 | 12.0 | 0.00 | 0.00 | 0.00 | 73 | 1012.0 |
| 20260503023055 | 66 | 213 | 5.0 | 15.0 | 0.00 | 0.00 | 0.00 | 71 | 1011.8 |
| 20260503021557 | 67 | 247 | 4.0 | 12.0 | 0.00 | 0.00 | 0.00 | 71 | 1011.5 |
| 20260503014627 | 71 | 181 | 3.0 | 10.0 | 0.00 | 0.00 | 0.00 | 66 | 1011.1 |
| 20260503013053 | 72 | 0 | 0.0 | 5.0 | 0.00 | 0.00 | 0.00 | 64 | 1011.0 |
| 20260503011617 | 72 | 0 | 0.0 | 2.0 | 0.00 | 0.00 | 0.00 | 62 | 1010.9 |
| 20260503010057 | 72 | 0 | 0.0 | 3.0 | 0.00 | 0.00 | 0.00 | 61 | 1010.8 |
| 20260503004602 | 72 | 196 | 0.0 | 6.0 | 0.00 | 0.00 | 0.00 | 62 | 1010.8 |
| 20260503003058 | 73 | 219 | 0.0 | 5.0 | 0.00 | 0.00 | 0.00 | 60 | 1010.8 |
| 20260503001608 | 73 | 126 | 0.0 | 3.0 | 0.00 | 0.00 | 0.00 | 59 | 1010.9 |
| 20260503000121 | 73 | 102 | 0.0 | 7.0 | 0.00 | 0.00 | 0.00 | 59 | 1011.0 |
| 20260502234618 | 74 | 123 | 1.0 | 4.0 | 0.00 | 0.00 | 0.00 | 58 | 1011.1 |
| 20260502233057 | 72 | 0 | 0.0 | 2.0 | 0.00 | 0.00 | 0.00 | 58 | 1011.4 |
| 20260502231553 | 71 | 0 | 0.0 | 4.0 | 0.00 | 0.00 | 0.00 | 60 | 1011.6 |
| 20260502230057 | 70 | 77 | 1.0 | 8.0 | 0.00 | 0.00 | 0.00 | 60 | 1011.7 |
| 20260502224555 | 70 | 55 | 3.0 | 7.0 | 0.00 | 0.00 | 0.00 | 60 | 1011.9 |
| 20260502223101 | 70 | 360 | 3.0 | 9.0 | 0.00 | 0.00 | 0.00 | 59 | 1012.2 |
| 20260502221552 | 70 | 336 | 3.0 | 9.0 | 0.00 | 0.00 | 0.00 | 58 | 1012.5 |